Wind_Speed
22 22 22 22 21 20 20 19 18 18 19 18 17 16 15 14 14 13 11 11 10 10 10 9 8 8 7 7 7 8 8 9 9 8 7 8 8 9 9 8 7 7 7 7 7 7 8 8 9 9 8 9
23 23 22 22 21 20 19 19 19 19 19 19 18 18 17 18 17 15 14 13 12 11 10 9 8 8 8 8 8 9 9 9 8 6 5 5 6 6 6 6 6 6 6 6 6 6 7 7 7 7 7 8
24 23 23 22 20 20 19 19 19 19 20 19 19 18 18 18 18 18 17 16 14 13 11 10 10 9 9 9 9 9 10 9 7 6 5 4 4 5 4 4 5 6 5 5 5 5 6 6 6 6 6 7
25 24 23 21 20 19 19 18 18 19 19 18 18 18 17 17 18 18 18 18 16 13 13 14 12 10 10 10 10 10 10 8 6 5 4 4 4 4 3 3 4 5 5 5 5 5 5 5 5 5 6 7
26 24 23 21 20 20 19 18 18 18 17 17 17 16 16 16 16 16 16 17 16 13 15 16 13 11 10 10 9 9 8 7 5 4 4 4 4 3 3 3 3 4 4 4 5 5 5 5 4 5 5 6
26 25 24 22 22 21 20 19 18 17 16 16 16 16 15 15 15 14 15 15 15 14 15 15 13 12 11 9 8 8 8 7 5 4 4 4 4 4 4 3 3 3 3 4 4 4 5 4 4 4 4 5
27 26 25 23 23 21 20 19 18 16 16 16 16 16 15 15 15 15 15 15 16 15 15 14 12 11 9 8 7 7 7 7 6 5 5 5 5 5 5 5 4 4 4 3 4 4 4 4 4 4 4 4
28 27 25 24 23 22 21 20 18 17 16 16 16 16 15 15 15 15 16 16 16 15 14 14 12 10 8 7 6 6 6 6 6 5 5 5 5 6 6 6 6 5 5 4 4 4 4 4 4 4 4 4
29 28 27 25 24 23 22 20 19 18 17 17 17 16 16 15 15 16 16 16 16 14 14 13 11 9 7 6 5 6 6 6 6 5 6 6 6 6 6 6 6 6 6 5 5 5 5 4 5 5 5 5
29 29 28 27 26 25 23 22 21 20 19 18 17 17 16 16 16 16 16 16 15 14 13 13 11 9 7 6 5 6 6 7 7 6 7 6 6 6 6 7 7 7 7 6 6 5 5 5 5 5 5 6
30 30 29 27 27 26 25 24 22 21 20 19 18 18 17 16 16 16 17 17 16 15 14 13 12 10 8 6 6 6 7 7 7 7 7 7 7 7 7 7 7 7 7 7 7 6 6 5 5 5 5 5
31 30 29 28 27 26 25 24 23 22 21 20 19 18 17 16 16 16 17 17 17 16 15 14 12 10 8 7 7 7 7 8 8 8 7 7 7 7 7 7 7 7 7 7 7 7 7 6 6 5 5 5
31 31 30 29 29 27 26 25 23 22 22 21 20 19 18 17 17 17 17 17 17 16 15 14 13 11 9 8 8 8 8 9 9 9 8 8 7 7 6 6 6 7 7 6 6 6 6 6 6 6 6 5
33 32 31 31 30 28 28 26 25 24 23 22 22 21 19 18 17 17 17 17 18 17 16 15 14 12 10 9 9 9 9 9 10 9 9 8 8 7 7 7 6 6 6 6 6 6 6 6 6 6 6 6
34 33 33 32 31 30 29 28 27 26 25 24 23 22 20 19 19 18 17 17 18 18 17 16 15 13 11 10 10 10 10 10 10 10 9 9 8 8 7 7 6 6 6 6 5 5 5 5 5 5 6 6
35 35 34 33 32 31 30 29 29 28 27 26 24 23 22 21 20 19 18 18 18 18 18 17 16 14 13 11 11 11 11 11 11 11 10 10 9 9 9 8 7 7 6 5 5 5 5 5 5 5 6 6
37 36 36 35 34 33 32 31 31 30 29 28 26 25 24 23 22 21 20 19 19 19 19 18 17 16 14 12 12 12 12 12 12 12 12 12 11 10 10 9 9 8 7 6 6 6 6 5 6 6 6 6
39 38 37 36 35 34 34 34 33 32 31 29 28 27 26 25 24 23 22 21 20 20 20 19 18 17 15 14 13 13 14 14 13 13 14 13 13 12 11 11 10 9 9 8 7 7 7 6 7 7 7 7
40 40 38 37 37 36 36 35 35 34 32 31 30 29 28 27 26 25 24 23 22 21 21 21 20 19 17 16 15 15 16 15 15 15 15 15 14 14 13 13 12 11 10 10 9 9 8 8 8 8 8 9
42 41 39 39 38 38 38 37 36 35 34 33 32 31 31 30 29 27 26 24 24 23 22 22 22 21 19 18 17 17 17 17 17 17 17 17 16 15 15 14 13 12 12 11 10 10 9 9 9 9 9 10
43 42 40 40 39 39 39 38 37 36 35 34 34 34 33 32 31 29 28 27 26 25 24 24 23 22 21 20 19 18 19 19 19 18 18 18 18 17 16 15 14 13 13 12 11 11 10 10 10 10 10 11
43 42 41 40 40 40 39 39 38 37 37 36 36 36 35 34 32 31 30 29 28 27 26 25 25 24 23 22 21 20 21 21 20 20 19 20 19 18 17 16 15 14 13 13 12 12 11 12 11 11 11 12
42 41 40 39 39 39 39 39 39 38 39 38 38 37 36 35 34 33 32 31 30 29 28 28 27 26 25 24 23 22 23 23 22 22 21 21 20 19 18 17 15 14 14 14 13 13 13 13 12 12 12 13
40 38 38 38 37 38 40 41 41 41 41 40 40 39 38 37 36 36 34 33 32 31 31 30 29 28 27 27 26 25 26 26 25 24 24 23 22 21 20 19 17 16 16 15 14 13 13 12 12 13 13 14
41 40 38 38 38 40 42 42 42 42 43 43 42 42 40 40 39 38 37 35 35 34 33 32 31 30 30 29 29 28 28 27 26 26 25 24 23 23 22 22 20 19 17 15 13 11 11 11 11 12 13 13
43 44 43 41 42 43 43 43 43 44 45 45 44 43 43 42 40 39 39 38 37 37 36 35 34 33 33 32 31 30 29 28 28 27 27 26 26 25 24 23 22 22 18 14 12 9 6 7 8 10 13 13
45 46 45 44 43 43 41 41 43 44 44 44 44 44 43 43 42 41 41 41 40 39 38 37 37 36 35 34 33 33 31 31 30 30 29 29 28 26 25 24 23 24 22 16 12 7 3 3 3 5 11 14
46 44 43 42 40 38 37 36 38 39 39 40 42 43 43 44 44 43 43 43 42 41 40 39 39 38 37 36 36 35 34 34 33 33 32 31 31 29 27 27 25 25 25 22 14 7 2 1 2 2 7 11
44 41 39 37 34 31 30 30 30 32 35 38 39 42 45 46 46 45 44 44 44 43 42 41 40 40 39 38 37 37 37 36 35 34 34 33 33 33 31 29 27 26 28 28 21 12 4 3 1 3 4 5
42 40 38 37 34 31 29 28 30 34 38 40 42 44 46 46 46 45 45 45 45 44 44 43 42 41 41 40 40 39 39 38 37 36 36 36 35 36 35 30 26 27 29 30 28 21 12 5 2 2 5 5
41 41 40 40 40 38 36 34 36 39 40 41 43 44 44 44 45 45 46 46 46 45 45 44 44 43 43 42 41 41 40 40 39 39 38 38 38 37 37 33 29 29 29 28 30 30 23 14 6 4 6 5
Wind_Direction
157 153 150 148 147 148 149 149 151 152 150 146 144 145 148 149 147 145 143 143 141 136 132 129 124 122 118 115 109 104 98 95 99 101 99 98 92 87 86 88 91 91 90 88 87 86 87 87 85 84 80 79
161 158 154 153 155 155 155 154 153 153 151 149 150 155 161 162 157 151 145 143 143 139 137 135 133 130 125 124 115 107 104 103 111 121 117 112 110 102 95 94 97 99 97 95 95 93 94 93 92 92 89 85
164 162 161 162 165 165 164 164 161 159 159 162 167 173 176 174 170 164 157 151 147 142 141 142 141 135 127 123 116 110 108 108 120 132 132 130 129 125 120 108 104 110 107 105 103 101 101 99 100 102 101 97
168 167 169 169 171 172 172 172 170 170 173 177 180 183 182 179 178 176 173 169 166 159 152 147 139 134 129 126 122 117 114 114 125 135 136 141 144 146 141 122 116 122 118 112 109 108 105 102 108 110 110 107
172 172 174 173 174 174 175 174 175 177 180 183 184 186 185 184 184 184 184 183 183 175 164 156 147 146 144 142 142 137 132 131 136 141 145 150 151 154 151 135 127 129 126 119 115 115 111 111 116 114 113 112
175 176 177 175 176 175 176 176 179 182 183 185 185 185 186 186 187 186 186 185 184 179 175 171 166 166 162 160 165 164 159 155 161 168 167 163 161 160 157 153 145 138 130 124 121 118 116 118 119 113 116 116
179 179 180 179 179 178 179 182 185 186 185 186 185 184 186 186 188 187 186 185 185 184 183 182 179 178 176 177 183 185 183 180 185 191 185 174 168 164 161 162 160 154 144 134 129 125 124 121 117 114 118 120
183 183 184 183 183 183 185 187 188 187 185 186 186 186 188 189 190 190 190 189 190 191 190 187 186 187 187 192 197 202 202 202 202 197 189 178 170 166 162 163 161 158 154 146 140 138 136 125 121 122 122 123
187 187 187 186 186 188 189 189 188 187 187 188 189 189 190 192 193 194 194 195 195 195 196 193 192 194 198 201 205 210 210 209 206 197 188 181 174 170 165 163 159 156 154 150 148 145 142 134 131 129 126 128
190 190 190 189 189 190 190 191 190 189 190 190 192 193 194 195 196 198 199 199 199 199 200 199 201 203 208 212 213 214 211 208 205 198 191 186 180 174 169 166 160 156 154 150 150 148 144 139 136 132 131 130
193 193 194 193 193 194 193 192 193 193 193 194 195 198 200 201 201 203 203 203 202 204 205 205 208 210 215 219 218 216 212 209 207 202 195 190 185 178 173 168 163 160 156 153 150 149 147 144 142 136 134 131
196 197 197 197 197 198 197 197 198 198 198 198 199 202 207 207 208 208 209 209 207 208 210 211 213 215 221 225 222 219 214 211 210 207 201 195 191 183 179 172 167 164 161 158 154 153 151 151 151 147 145 138
200 200 200 201 202 201 201 202 204 204 203 202 203 206 209 211 212 212 214 215 213 213 213 215 218 220 225 229 228 223 217 214 212 212 207 202 199 192 188 181 174 171 169 166 159 158 156 155 157 156 158 153
203 203 204 205 206 205 206 207 207 208 208 207 208 209 211 214 217 217 217 218 218 218 218 218 220 223 227 231 231 226 220 217 213 214 213 208 206 202 199 194 185 179 176 174 168 164 161 159 162 163 164 164
206 207 209 209 208 209 209 209 210 210 211 210 212 214 215 215 217 220 220 220 221 221 222 222 223 225 229 232 232 228 222 219 216 214 215 213 210 208 207 205 197 190 186 180 175 171 170 170 171 172 171 173
209 211 212 212 211 212 212 212 212 213 212 213 215 217 217 217 218 219 221 223 224 224 224 225 225 227 230 234 233 231 226 222 220 216 216 215 212 211 210 211 208 201 198 190 185 181 182 182 182 182 179 182
213 214 214 214 214 215 214 214 215 215 215 215 217 219 220 220 220 220 222 224 226 226 227 227 228 230 232 234 234 233 230 225 224 220 218 217 215 215 212 213 214 208 204 200 197 195 195 195 191 191 188 190
216 216 215 216 216 216 216 216 216 217 217 218 219 221 222 222 222 222 223 224 227 227 227 228 229 232 233 234 235 235 233 229 227 224 222 221 219 218 215 215 215 211 209 206 203 201 202 203 199 198 196 195
218 219 218 218 218 218 218 218 218 219 219 220 221 222 223 223 223 223 224 225 227 228 228 229 230 231 232 233 234 234 235 231 228 225 223 223 222 220 217 215 213 211 209 208 206 204 204 203 201 202 202 201
219 220 221 221 221 221 220 220 220 221 222 223 223 224 224 224 224 224 225 226 227 229 230 231 233 233 232 232 232 233 233 231 229 226 222 223 223 221 219 216 213 211 210 210 208 207 205 203 201 203 205 205
218 221 222 223 223 222 222 222 223 223 224 225 225 226 226 225 224 225 226 227 228 230 232 233 235 234 232 232 232 233 233 231 229 225 223 223 222 220 221 220 215 211 211 211 210 209 207 204 204 207 207 206
218 221 222 222 222 223 223 224 226 226 225 227 227 227 227 226 226 226 227 228 229 231 233 234 235 234 232 232 232 231 232 231 229 226 224 224 222 220 220 221 219 215 213 212 212 210 208 206 206 211 211 208
217 218 219 220 221 222 224 225 226 226 227 229 229 229 229 228 228 228 228 228 229 231 232 233 233 233 231 231 231 230 230 229 226 225 223 222 223 221 220 221 221 218 216 214 213 210 208 208 210 215 214 211
214 214 215 217 218 219 222 225 226 227 228 229 231 231 231 230 229 230 230 230 231 231 232 233 233 233 231 231 231 229 229 228 227 226 224 222 220 220 220 219 216 216 216 215 216 213 210 211 216 220 219 214
210 210 212 214 215 218 221 223 224 225 228 229 231 232 231 231 230 230 231 231 232 232 232 233 233 232 231 230 230 231 232 232 232 229 227 224 220 219 220 217 215 212 210 212 217 215 214 220 225 224 219 215
211 213 214 215 217 220 222 222 223 225 228 229 230 231 231 231 230 231 232 232 232 232 232 232 232 232 231 230 231 232 232 232 232 229 226 223 220 219 219 220 217 211 205 206 209 200 198 225 233 226 219 214
213 216 218 219 221 222 222 223 225 227 228 229 229 230 230 231 232 232 232 233 232 232 232 232 233 233 232 231 231 231 230 229 229 228 226 224 222 219 218 221 220 214 208 202 192 169 162 223 226 234 229 220
216 218 219 221 223 224 223 225 227 227 228 228 229 229 230 232 233 232 232 232 232 232 232 233 234 234 233 233 232 232 231 229 228 228 227 225 223 220 217 218 218 215 212 206 190 161 137 118 104 251 234 215
216 216 217 217 219 222 224 225 225 223 224 226 228 229 231 233 232 232 232 232 232 233 233 234 235 235 235 234 233 233 232 232 232 230 229 227 225 223 220 218 217 214 214 213 205 190 161 111 152 244 200 178
215 214 214 213 213 214 215 217 219 220 222 224 226 229 232 233 232 232 232 232 233 233 234 235 235 236 236 235 234 233 233 233 233 232 231 229 227 225 224 221 218 215 215 216 214 210 205 189 185 190 156 145
215 215 215 215 215 216 215 217 221 224 226 227 228 230 232 232 233 233 233 233 233 233 234 235 235 236 236 236 235 234 233 233 233 234 233 232 230 228 226 222 221 220 217 216 218 218 220 223 224 185 161 168
Height
849 850 850 851 852 853 853 855 855 856 857 858 860 861 862 863 864 865 866 866 867 867 867 867 868 868 868 869 868 868 868 867 867 866 866 866 865 865 865 865 865 865 865 865 865 865 865 865 865 865 865 865
848 849 850 850 851 852 853 854 855 855 857 858 859 860 861 862 863 864 865 866 866 866 867 867 868 868 868 868 868 868 868 867 867 866 866 866 866 865 865 865 865 865 865 865 865 865 865 866 866 866 866 866
848 848 849 849 850 851 852 853 854 855 856 857 858 859 860 861 862 863 864 865 865 866 866 867 867 868 868 868 868 868 867 867 867 866 866 866 866 866 865 865 865 865 865 865 865 866 866 866 866 866 866 866
847 847 848 849 849 850 851 852 853 854 855 856 857 858 859 860 861 862 863 863 864 864 865 866 867 867 868 868 868 867 867 867 866 866 866 866 866 866 865 865 865 865 866 866 866 866 866 866 867 867 867 867
845 846 847 848 849 850 850 851 852 853 854 855 856 857 858 859 860 861 862 863 863 864 864 865 866 866 867 867 867 867 867 867 866 866 866 866 866 866 866 866 866 866 866 866 866 866 866 867 867 867 867 867
844 845 846 847 848 849 850 850 851 852 853 854 855 857 857 858 859 861 861 862 863 863 864 865 865 865 866 866 866 866 866 866 866 866 866 866 866 866 866 866 866 866 866 866 866 866 866 867 867 867 867 867
843 844 845 846 847 848 849 850 851 851 853 854 855 856 857 858 859 860 861 862 863 863 864 864 865 865 865 865 865 866 866 866 865 865 865 865 866 866 866 866 866 866 866 866 866 866 867 867 867 867 867 868
842 843 844 845 846 847 848 849 850 851 852 853 854 855 856 857 858 859 860 861 862 862 863 864 864 864 865 865 865 865 865 865 865 865 865 865 865 866 866 866 866 866 866 866 866 866 867 867 867 867 867 868
841 842 843 844 845 846 847 848 850 850 851 852 853 854 855 856 857 859 859 860 861 862 863 863 864 864 864 865 865 865 865 865 865 865 865 865 865 865 866 866 866 866 866 866 866 866 866 867 867 867 867 868
840 841 842 843 844 845 846 847 848 850 850 851 852 853 854 855 856 858 858 859 860 861 862 862 863 863 864 864 864 864 864 864 864 865 865 865 865 865 865 866 866 866 866 866 866 866 866 867 867 867 867 868
838 840 841 842 843 844 845 846 847 848 849 850 851 852 853 854 855 856 857 858 859 860 861 862 862 863 863 864 864 864 864 864 864 864 864 865 865 865 865 866 866 866 866 866 866 867 867 867 867 867 867 868
837 839 840 841 842 843 844 845 846 847 848 849 850 851 852 853 854 855 856 857 858 859 860 860 861 862 862 863 863 863 864 864 864 864 864 864 864 865 865 865 866 866 866 866 867 867 867 867 867 867 868 868
836 837 838 839 840 841 843 843 845 846 847 848 849 850 851 852 853 854 855 856 857 858 859 859 860 861 861 862 863 863 863 863 864 864 864 864 864 864 865 865 865 866 866 866 866 867 867 867 867 868 868 868
834 835 836 837 838 840 841 842 843 845 845 846 847 848 850 851 852 853 854 855 856 856 857 858 859 860 861 861 862 862 863 863 863 863 864 864 864 864 864 865 865 865 866 866 866 866 867 867 867 868 868 868
832 833 834 835 837 838 839 841 842 843 844 845 846 847 848 849 851 852 853 853 854 855 856 857 858 859 859 860 861 861 862 862 863 863 863 864 864 864 864 864 865 865 865 865 866 866 866 867 867 867 868 868
830 831 832 833 835 836 837 839 840 841 842 843 844 846 847 848 849 850 851 852 853 854 854 855 856 857 858 859 860 860 861 861 862 862 863 863 863 864 864 864 864 864 865 865 865 866 866 866 866 867 867 868
828 829 830 831 833 834 836 837 838 839 840 842 843 844 845 846 847 848 849 850 851 852 853 854 855 856 857 858 858 859 860 860 861 861 862 862 863 863 863 864 864 864 864 864 865 865 865 865 866 866 867 867
825 826 828 829 831 832 833 835 836 837 838 840 841 842 843 844 845 846 848 849 850 851 852 853 853 854 856 856 857 858 858 859 860 860 861 861 862 862 863 863 863 864 864 864 864 865 865 865 865 866 866 866
822 824 825 827 828 830 831 832 833 835 836 838 839 840 841 842 843 844 846 847 848 849 850 851 852 853 854 855 856 857 857 858 859 859 860 861 861 861 862 862 863 863 863 864 864 864 864 864 865 865 865 865
820 821 823 824 826 827 828 830 831 833 834 835 837 837 838 839 841 842 843 845 846 847 848 849 850 851 853 854 854 855 856 857 857 858 859 860 860 860 861 861 862 862 862 863 863 864 864 864 864 864 864 865
818 819 821 822 824 825 826 827 829 830 832 833 834 835 836 837 838 840 841 843 844 845 846 847 848 850 851 852 853 854 855 855 856 857 858 858 859 859 860 860 861 861 862 862 862 862 863 863 863 863 864 864
815 817 819 820 822 823 824 825 826 828 829 830 831 832 833 835 836 837 839 840 842 843 844 845 847 848 849 850 851 852 853 854 855 856 856 857 858 858 859 859 860 860 861 861 861 862 862 862 862 862 863 863
813 815 816 818 820 821 822 823 824 825 826 827 828 829 831 832 834 835 836 838 839 841 841 843 844 845 847 847 849 850 851 852 853 854 854 855 856 857 857 858 859 860 860 860 860 860 861 861 861 861 861 862
810 812 813 815 816 817 818 819 820 821 822 824 825 826 828 829 831 832 833 835 837 838 839 840 841 842 844 845 846 847 848 849 850 851 852 853 854 855 856 856 857 858 858 859 859 860 860 860 860 860 860 860
804 806 808 810 811 811 813 814 816 817 818 820 821 823 825 826 828 829 831 832 833 835 835 836 838 839 841 842 843 844 845 846 848 849 850 851 853 853 854 854 855 856 857 858 858 858 859 859 859 858 859 859
798 800 802 803 805 806 808 810 811 812 813 815 817 819 821 823 825 826 828 829 830 831 832 833 835 836 838 839 841 842 843 845 846 847 848 849 850 851 852 852 853 854 855 856 856 857 858 858 858 857 857 857
793 795 798 800 801 803 805 806 807 809 811 813 814 816 818 820 821 823 824 825 826 828 829 830 832 833 835 837 838 839 841 842 843 844 845 846 847 849 850 850 851 851 852 853 854 856 856 856 856 856 855 855
790 793 796 798 800 802 803 804 806 808 809 810 812 813 815 816 817 819 820 822 823 825 826 828 829 831 832 834 835 836 837 838 839 841 842 843 845 846 847 847 847 849 850 850 851 853 854 856 856 853 851 852
789 791 794 797 799 801 802 803 804 805 805 806 808 809 810 811 813 815 816 818 820 821 823 825 826 828 829 830 832 833 834 835 836 838 839 840 842 843 843 844 845 847 847 847 848 849 850 852 853 849 849 851
786 788 790 792 793 795 796 797 797 797 798 800 801 803 804 806 809 811 812 814 816 817 820 821 823 824 825 827 828 830 831 832 833 835 836 837 839 840 841 843 844 844 844 845 846 846 845 846 846 846 848 850
782 784 785 786 787 788 790 790 790 791 794 796 797 799 802 804 805 807 808 810 812 814 816 818 819 821 822 823 825 826 827 828 830 831 833 835 836 837 839 840 841 841 842 843 843 843 843 844 844 845 847 847